Weather in Millerovo

Russia / Rostov Oblast     48°55′18″N   40°23′41″E
temp.,
°C
wind,
m/s
gust,
m/s
humid.,
%
clouds,
%
prec.,
mm/h
press.,
hPa
HPBL,
m
27 june, mon
mon2700:00+21ne6156882 0.0 1015427
03:00+19ne51373100 0.0 1015325
06:00+20ene5127315 0.0 1017418
09:00+25ene79471 0.0 1016795
12:00+28ene78330 0.0 10171654
15:00+29ene77290 0.0 10161955
18:00+27ene67350 0.0 10161350
21:00+20nne411570 0.0 1017201
28 june, tue
tue2800:00+17ne376396 0.0 1017103
03:00+16ne346796 0.0 101759
06:00+18nne35651 0.0 1017134
09:00+25ne45430 0.0 1016785
12:00+30ne45380 0.0 10151680
15:00+30nne554297 0.1 10132319
18:00+26nne7105731 0.3 1014542
21:00+23ne410612 0.4 1015241
29 june, wed
wed2900:00+19ne411801 0.0 1016240
03:00+17ne510890 0.0 1017227
06:00+18ne58844 0.0 1018320
09:00+22ene55577 0.0 1018984
12:00+26ne54375 0.0 10181909
15:00+27ene543152 0.0 10172231
18:00+25ene543415 0.0 10172044
21:00+18ne495470 0.0 1018170
30 june, thu
thu3000:00+16e51158100 0.0 1018266
03:00+15ene3861100 0.0 1019186
06:00+16ne355781 0.0 1018157
09:00+22ene443925 0.0 10181272
12:00+24ne44310 0.0 10172182
15:00+25nne55301 0.0 10172425
18:00+25nne553310 0.0 10162359
21:00+18ne355475 0.0 101780
1 july, fri
fri100:00+16n336510 0.0 101837
03:00+14n35754 0.0 101872
06:00+16n376884 0.0 1018192
09:00+23nne47400 0.0 10181535
12:00+26nne66315 0.0 10182532
15:00+27nne76299 0.0 10172829
18:00+25nne77340 0.0 10182221
21:00+18ne411510 0.0 1020226